Tehachapi, CA

11:10 PM PST on December 14, 2017 (GMT -0800)
Tehachapi Municipal

Weather History for KTSP - April, 2013

Change the Weather History Date:

Friday, April 19, 2013

  Actual Average Record
Temperature  
Mean Temperature 48 °F -  
Max Temperature 68 °F 60 °F 77 °F (2015)
Min Temperature 28 °F 35 °F 28 °F (2013)
Degree Days  
Heating Degree Days 17    
Moisture  
Dew Point 20 °F    
Average Humidity 34    
Maximum Humidity 64    
Minimum Humidity 10    
Precipitation  
Precipitation 0.00 in - - ()
Sea Level Pressure  
Sea Level Pressure 30.22 in    
Wind  
Wind Speed 7 mph (WNW)    
Max Wind Speed 22 mph    
Max Gust Speed 30 mph    
Visibility 10 miles    
Events      
Averages and records for this station are not official NWS values.
T = Trace of Precipitation, MM = Missing Value Source: NWS Daily Summary

Daily Weather History Graph

Daily Weather History Graph

Search for Another Location

Airport or City:

Trip Planner

Search our weather history database for the weather conditions in past years. The results will help you decide how hot, cold, wet, or windy it might be!

Date:

Astronomy

Apr. 19, 2013 Rise Set
Actual Time 6:16 AM PDT 7:29 PM PDT
Civil Twilight 5:49 AM PDT 7:56 PM PDT
Nautical Twilight 5:18 AM PDT 8:27 PM PDT
Astronomical Twilight 4:45 AM PDT 9:00 PM PDT
Moon 1:32 PM PDT (4/19) 2:20 AM PDT (4/19)
Length of Visible Light 14h 06m
Length of Day
13h 13m
Waxing Gibbous, 62% of the Moon is Illuminated
Apr 19
Waxing Gibbous
Apr 25
Full
May 2
Last Quarter
May 9
New
May 17
First Quarter

Hourly Weather History & Observations

Time (PDT) Temp. Windchill Dew Point Humidity Pressure Visibility Wind Dir Wind Speed Gust Speed Precip Events Conditions
12:15 AM 35.6 °F 31.7 °F 19.4 °F 52% 30.28 in 10.0 mi SE 4.6 mph - N/A   Clear
12:35 AM 35.6 °F - 19.4 °F 52% 30.29 in 10.0 mi Calm Calm - N/A   Clear
12:55 AM 35.6 °F - 17.6 °F 48% 30.28 in 10.0 mi Calm Calm - N/A   Clear
1:15 AM 33.8 °F 29.6 °F 19.4 °F 56% 30.28 in 10.0 mi ESE 4.6 mph - N/A   Clear
1:35 AM 33.8 °F 29.6 °F 19.4 °F 56% 30.27 in 10.0 mi ESE 4.6 mph - N/A   Clear
1:55 AM 32.0 °F 26.4 °F 17.6 °F 55% 30.27 in 10.0 mi SE 5.8 mph - N/A   Clear
2:15 AM 32.0 °F 28.7 °F 17.6 °F 55% 30.27 in 10.0 mi ENE 3.5 mph - N/A   Clear
2:35 AM 32.0 °F 27.5 °F 17.6 °F 55% 30.26 in 10.0 mi East 4.6 mph - N/A   Clear
2:55 AM 32.0 °F - 17.6 °F 55% 30.27 in 10.0 mi Calm Calm - N/A   Clear
3:15 AM 30.2 °F 24.3 °F 17.6 °F 60% 30.27 in 10.0 mi SE 5.8 mph - N/A   Clear
3:35 AM 32.0 °F 28.7 °F 19.4 °F 60% 30.27 in 10.0 mi ESE 3.5 mph - N/A   Clear
3:55 AM 32.0 °F 24.8 °F 19.4 °F 60% 30.27 in 10.0 mi SE 8.1 mph - N/A   Clear
4:15 AM 32.0 °F 25.6 °F 17.6 °F 55% 30.26 in 10.0 mi ESE 6.9 mph - N/A   Clear
4:35 AM 32.0 °F 25.6 °F 17.6 °F 55% 30.25 in 10.0 mi SE 6.9 mph - N/A   Clear
4:55 AM 32.0 °F - 17.6 °F 55% 30.25 in 10.0 mi Calm Calm - N/A   Clear
5:15 AM 30.2 °F - 17.6 °F 60% 30.26 in 10.0 mi Calm Calm - N/A   Clear
5:35 AM 30.2 °F - 17.6 °F 60% 30.26 in 10.0 mi Calm Calm - N/A   Clear
5:55 AM 28.4 °F 23.3 °F 17.6 °F 64% 30.26 in 10.0 mi NE 4.6 mph - N/A   Clear
6:15 AM 32.0 °F - 17.6 °F 55% 30.26 in 10.0 mi Calm Calm - N/A   Clear
6:35 AM 28.4 °F - 17.6 °F 64% 30.27 in 10.0 mi Calm Calm - N/A   Clear
6:55 AM 32.0 °F - 17.6 °F 55% 30.28 in 10.0 mi Calm Calm - N/A   Clear
7:15 AM 35.6 °F - 19.4 °F 52% 30.28 in 10.0 mi Calm Calm - N/A   Clear
7:35 AM 39.2 °F - 19.4 °F 45% 30.29 in 10.0 mi Calm Calm - N/A   Clear
8:15 AM 46.4 °F - 19.4 °F 34% 30.29 in 10.0 mi Calm Calm - N/A   Clear
8:35 AM 50.0 °F - 17.6 °F 28% 30.29 in 10.0 mi Calm Calm - N/A   Clear
8:55 AM 53.6 °F - 19.4 °F 26% 30.29 in 10.0 mi Calm Calm - N/A   Clear
9:15 AM 57.2 °F - 19.4 °F 23% 30.28 in 10.0 mi NW 5.8 mph - N/A   Clear
9:35 AM 59.0 °F - 17.6 °F 20% 30.28 in 10.0 mi Calm Calm - N/A   Clear
9:55 AM 59.0 °F - 15.8 °F 19% 30.28 in 10.0 mi South 3.5 mph - N/A   Clear
10:15 AM 62.6 °F - 10.4 °F 13% 30.27 in 10.0 mi Calm Calm - N/A   Clear
10:35 AM 62.6 °F - 5.0 °F 10% 30.27 in 10.0 mi SSE 5.8 mph - N/A   Clear
10:55 AM 64.4 °F - 6.8 °F 10% 30.26 in 10.0 mi Calm Calm - N/A   Clear
11:15 AM 66.2 °F - 6.8 °F 10% 30.26 in 10.0 mi WSW 3.5 mph - N/A   Clear
11:35 AM 66.2 °F - 14.0 °F 13% 30.25 in 10.0 mi NW 10.4 mph - N/A   Clear
11:55 AM 66.2 °F - 14.0 °F 13% 30.24 in 10.0 mi WNW 8.1 mph - N/A   Clear
12:15 PM 68.0 °F - 19.4 °F 16% 30.24 in 10.0 mi NW 15.0 mph 18.4 mph N/A   Clear
12:35 PM 68.0 °F - 19.4 °F 16% 30.23 in 10.0 mi NW 13.8 mph - N/A   Clear
12:55 PM 68.0 °F - 21.2 °F 17% 30.22 in 10.0 mi NW 17.3 mph - N/A   Clear
1:15 PM 66.2 °F - 21.2 °F 18% 30.22 in 10.0 mi NW 18.4 mph 21.9 mph N/A   Clear
1:35 PM 68.0 °F - 21.2 °F 17% 30.22 in 10.0 mi NW 17.3 mph 21.9 mph N/A   Clear
1:55 PM 66.2 °F - 23.0 °F 19% 30.22 in 10.0 mi NW 17.3 mph 25.3 mph N/A   Clear
2:15 PM 66.2 °F - 19.4 °F 17% 30.22 in 10.0 mi NNW 20.7 mph 26.5 mph N/A   Clear
2:35 PM 66.2 °F - 21.2 °F 18% 30.21 in 10.0 mi NW 16.1 mph 21.9 mph N/A   Clear
2:55 PM 66.2 °F - 21.2 °F 18% 30.20 in 10.0 mi NW 17.3 mph 23.0 mph N/A   Clear
3:15 PM 66.2 °F - 17.6 °F 15% 30.18 in 10.0 mi NW 18.4 mph 25.3 mph N/A   Clear
3:35 PM 66.2 °F - 15.8 °F 14% 30.18 in 10.0 mi NW 16.1 mph 24.2 mph N/A   Clear
3:55 PM 66.2 °F - 17.6 °F 15% 30.17 in 10.0 mi NW 20.7 mph 26.5 mph N/A   Clear
4:15 PM 66.2 °F - 19.4 °F 17% 30.17 in 10.0 mi NW 17.3 mph 26.5 mph N/A   Clear
4:35 PM 66.2 °F - 19.4 °F 17% 30.16 in 10.0 mi NW 18.4 mph 26.5 mph N/A   Clear
4:55 PM 66.2 °F - 19.4 °F 17% 30.16 in 10.0 mi NW 21.9 mph 29.9 mph N/A   Clear
5:15 PM 64.4 °F - 21.2 °F 19% 30.16 in 10.0 mi NW 17.3 mph 24.2 mph N/A   Clear
5:35 PM 64.4 °F - 21.2 °F 19% 30.15 in 10.0 mi NW 17.3 mph 24.2 mph N/A   Clear
5:55 PM 62.6 °F - 21.2 °F 20% 30.14 in 10.0 mi NW 17.3 mph 24.2 mph N/A   Clear
6:15 PM 62.6 °F - 23.0 °F 22% 30.15 in 10.0 mi WNW 20.7 mph 26.5 mph N/A   Clear
6:35 PM 60.8 °F - 23.0 °F 23% 30.15 in 10.0 mi WNW 20.7 mph 26.5 mph N/A   Clear
6:55 PM 60.8 °F - 23.0 °F 23% 30.14 in 10.0 mi WNW 15.0 mph - N/A   Clear
7:15 PM 59.0 °F - 24.8 °F 27% 30.13 in 10.0 mi West 18.4 mph - N/A   Clear
7:35 PM 57.2 °F - 24.8 °F 29% 30.13 in 10.0 mi West 15.0 mph - N/A   Clear
7:55 PM 55.4 °F - 26.6 °F 33% 30.13 in 10.0 mi West 16.1 mph - N/A   Clear
8:15 PM 55.4 °F - 26.6 °F 33% 30.13 in 10.0 mi West 11.5 mph - N/A   Clear
8:35 PM 53.6 °F - 26.6 °F 35% 30.13 in 10.0 mi WSW 12.7 mph - N/A   Clear
8:55 PM 53.6 °F - 26.6 °F 35% 30.13 in 10.0 mi West 8.1 mph - N/A   Clear
9:15 PM 51.8 °F - 26.6 °F 38% 30.13 in 10.0 mi West 8.1 mph - N/A   Clear
9:35 PM 50.0 °F - 24.8 °F 37% 30.14 in 10.0 mi WSW 6.9 mph - N/A   Clear
9:55 PM 51.8 °F - 24.8 °F 35% 30.14 in 10.0 mi WSW 5.8 mph - N/A   Clear
10:15 PM 50.0 °F - 24.8 °F 37% 30.14 in 10.0 mi WSW 9.2 mph - N/A   Clear
10:35 PM 48.2 °F - 24.8 °F 40% 30.15 in 10.0 mi West 10.4 mph - N/A   Clear
10:55 PM 48.2 °F - 24.8 °F 40% 30.14 in 10.0 mi West 10.4 mph - N/A   Clear
11:15 PM 46.4 °F 44.3 °F 24.8 °F 43% 30.15 in 10.0 mi NNW 4.6 mph - N/A   Clear
11:35 PM 46.4 °F 41.9 °F 26.6 °F 46% 30.14 in 10.0 mi WNW 9.2 mph - N/A   Clear
11:55 PM 50.0 °F - 26.6 °F 40% 30.14 in 10.0 mi West 15.0 mph 19.6 mph N/A   Clear